[[{"header":{"parameterUnit":"m.s-1","parameterCategory":1,"la1":30.2991,"la2":30.254,"lo1":-89.0895,"lo2":-89.0444,"dy":0.0017,"dx":0.0017,"nx":28,"ny":28,"refTime":"2026-03-05T03:00:00:Z","depth":0,"parameterNumber":2,"parameterNumberName":"U-component_of_WINDS"},"data":[0,0,0,0,0,0,0,0,0,0,0,0,0,0,0,0,0,0,0,0,0,0,0,0,0,0,0,0,0,0,0,0,0,0,0,0,0,0,0,0,0,0,0,0,0,0,0,0,0,0,0,0,0,0,0,0,0,0,-2.8758,-2.8758,0,-2.8744,-2.8744,-2.8743,-2.8667,-2.8665,-2.8663,-2.8661,-2.8649,-2.865,-2.8651,0,0,0,0,0,0,0,0,0,0,0,0,0,-2.8723,-2.8724,-2.8758,-2.8758,-2.8758,-2.8744,-2.8744,-2.8743,-2.8667,-2.8665,-2.8663,-2.8661,-2.8648,-2.865,-2.8651,0,0,0,0,0,0,0,0,0,0,0,0,0,-2.8727,-2.8724,-2.8758,-2.8718,-2.8714,-2.8744,-2.8744,-2.8743,-2.8668,-2.8665,-2.8662,-2.8659,-2.8648,-2.865,-2.8652,-2.8719,0,0,-2.8658,-2.8659,0,0,0,0,0,0,0,0,-2.8726,-2.8728,-2.8724,-2.8721,-2.8716,-2.8704,-2.8726,-2.8735,-2.8668,-2.8685,-2.8661,-2.8658,-2.8669,-2.867,-2.8673,-2.8719,-2.8718,-2.8658,-2.8659,-2.866,-2.8661,0,0,0,0,0,0,0,-2.8726,-2.8728,-2.8752,-2.8724,-2.8719,-2.8702,-2.8699,-2.8728,-2.8693,-2.8684,-2.8678,-2.8677,-2.8667,-2.8671,-2.8672,-2.8718,-2.8658,-2.866,-2.8661,-2.8662,-2.8821,-2.8824,0,0,0,0,0,0,-2.8731,-2.8728,-2.8753,-2.8752,-2.8715,-2.8705,-2.8702,-2.8711,-2.8692,-2.8687,-2.868,-2.8674,-2.8669,-2.867,-2.8671,-2.8749,-2.866,-2.8662,-2.8663,-2.8818,-2.8822,-2.8825,0,0,0,0,0,0,-2.8731,-2.8734,-2.8753,-2.8739,-2.874,-2.8708,-2.8719,-2.8712,-2.8716,-2.8689,-2.8683,-2.869,-2.8667,-2.8668,-2.8708,-2.8748,-2.8663,-2.8665,-2.8815,-2.8819,-2.8823,-2.8907,0,0,0,0,0,0,-2.873,-2.8734,-2.8758,-2.874,-2.8741,-2.8789,-2.8722,-2.8714,-2.872,-2.8712,-2.8697,-2.8693,-2.8665,-2.8706,-2.871,-2.8749,-2.8666,-2.8811,-2.8817,-2.8822,-2.89,-2.8913,-2.8925,0,0,0,0,0,-2.8729,-2.8782,-2.876,-2.8763,-2.877,-2.8792,-2.8792,-2.8759,-2.8723,-2.8748,-2.8731,-2.8693,-2.8744,-2.871,-2.8715,-2.8755,-2.8808,-2.8815,-2.8821,-2.8895,-2.8911,-2.8925,0,0,0,0,0,0,-2.8806,-2.8779,-2.8754,-2.8802,-2.88,-2.8779,-2.8808,-2.8777,-2.8785,-2.8777,-2.8736,-2.8734,-2.878,-2.8772,-2.8735,-2.8821,-2.877,-2.8778,-2.8824,-2.8839,-2.8851,-2.8851,-2.8668,0,0,0,0,0,-2.8829,-2.8848,-2.8824,-2.8869,-2.8869,-2.884,-2.8848,-2.8823,-2.8818,-2.8817,-2.8803,-2.8802,-2.8817,-2.8828,-2.8841,-2.89,-2.8896,-2.8931,-2.8943,-2.8953,-2.896,-2.8992,-2.9007,-2.8847,-2.8847,-2.8847,0,0,-2.8876,-2.8863,-2.8878,-2.8884,-2.8879,-2.8901,-2.8839,-2.8864,-2.888,-2.8821,-2.8857,-2.8848,-2.8844,-2.8894,-2.8915,-2.8889,-2.9004,-2.8962,-2.897,-2.8971,-2.9,-2.9015,-2.9029,-2.8852,-2.8851,-2.885,0,0,-2.8971,-2.8964,-2.9001,-2.8999,-2.8992,-2.8973,-2.8983,-2.8967,-2.8958,-2.8994,-2.8951,-2.8971,-2.8998,-2.8997,-2.9,-2.9101,-2.9066,-2.9107,-2.917,-2.9202,-2.9214,-2.9225,-2.9261,-2.9274,-2.9114,-2.9115,-2.9115,0,-2.903,-2.906,-2.9025,-2.9053,-2.9058,-2.9007,-2.9045,-2.9045,-2.9044,-2.9049,-2.9019,-2.9054,-2.9048,-2.9098,-2.9123,-2.9127,-2.9137,-2.9106,-2.9215,-2.9226,-2.9236,-2.9269,-2.9282,-2.9119,-2.9119,-2.9118,-2.9118,0,-2.9132,-2.9154,-2.9186,-2.9186,-2.9195,-2.9228,-2.92,-2.9213,-2.9189,-2.9174,-2.9213,-2.9204,-2.9215,-2.9225,-2.9202,-2.9273,-2.9256,-2.9222,-2.9169,-2.9256,-2.9287,-2.9299,-2.9126,-2.9125,-2.9123,-2.9122,0,0,-2.9271,-2.9255,-2.9267,-2.9267,-2.9259,-2.9275,-2.9308,-2.9319,-2.9331,-2.9334,-2.936,-2.9387,-2.9356,-2.936,-2.9337,-2.9365,-2.9446,-2.9327,-2.9327,-2.9348,-2.9524,-2.9548,-2.9563,-2.9424,-2.9427,-2.9428,-2.9524,0,-2.9362,-2.9415,-2.9386,-2.9444,-2.9464,-2.9419,-2.9447,-2.9447,-2.9434,-2.9451,-2.9438,-2.9457,-2.9415,-2.9417,-2.9444,-2.943,-2.948,-2.9423,-2.9448,-2.945,-2.9448,-2.9579,-2.9604,-2.9694,-2.9536,-2.9538,-2.9539,0,-2.9473,-2.9481,-2.954,-2.953,-2.9538,-2.9564,-2.9572,-2.9589,-2.9589,-2.9578,-2.9585,-2.9555,-2.9589,-2.9539,-2.9585,-2.9547,-2.9556,-2.9552,-2.9555,-2.9553,-2.9497,-2.958,-2.9722,-2.9735,-2.9558,-2.9556,-2.9555,0,-2.9567,-2.9593,-2.9632,-2.9634,-2.9623,-2.9643,-2.964,-2.9636,-2.9646,-2.9655,-2.966,-2.9674,-2.968,-2.9692,-2.9668,-2.9634,-2.9717,-2.9665,-2.9709,-2.971,-2.9726,-2.9725,-2.987,-2.9737,-2.9736,-2.9736,-2.9736,0,-2.9669,-2.9707,-2.9674,-2.9698,-2.974,-2.9709,-2.9752,-2.9744,-2.9742,-2.9765,-2.9728,-2.975,-2.9719,-2.9739,-2.9721,-2.9761,-2.9765,-2.9758,-2.9752,-2.976,-2.976,-2.9763,-2.9755,-2.974,-2.9739,-2.9738,-2.9738,0,-2.9779,-2.9759,-2.9798,-2.9787,-2.9785,-2.9816,-2.9807,-2.9829,-2.9816,-2.9846,-2.9851,-2.9831,-2.9853,-2.9831,-2.9851,-2.984,-2.9894,-2.988,-2.9894,-2.9889,-2.9934,-2.9929,-3.0083,-3.0102,-2.9959,-2.996,-2.9962,0,-2.9844,-2.9873,-2.9865,-2.9877,-2.9876,-2.9897,-2.9907,-2.988,-2.9891,-2.9895,-2.9917,-2.9937,-2.9949,-2.9987,-2.9975,-2.9991,-2.9976,-3.003,-2.9978,-2.9986,-2.9975,-2.9973,-2.9976,-3.0039,-3.004,-3.0042,-3.0043,0,-2.9962,-2.9951,-2.9966,-2.9979,-2.9992,-3.0001,-3.0007,-3.0019,-2.9992,-3.0007,-3.0029,-3.004,-3.0062,-3.0081,-3.0095,-3.0093,-3.0064,-3.006,-3.0071,-3.0077,-3.0083,-3.0079,-2.992,-3.0056,-3.0054,-3.0053,-3.0053,-3.0052,-3.005,-3.0074,-3.0072,-3.0091,-3.0094,-3.0101,-3.0122,-3.0113,-3.013,-3.0145,-3.0129,-3.0157,-3.0159,-3.0173,-3.0176,-3.0197,-3.0175,-3.0191,-3.0194,-3.0198,-3.0204,-3.0083,-3.02,-3.02,-3.0199,-3.0199,-3.0199,0,-3.0164,-3.0162,-3.018,-3.019,-3.0206,-3.0179,-3.0186,-3.02,-3.0225,-3.0229,-3.0244,-3.027,-3.029,-3.0281,-3.0299,-3.0318,-3.0306,-3.0324,-3.0321,-3.0321,-3.0223,-3.0212,-3.0334,-3.0334,-3.0334,-3.0334,-3.0334,-3.0334,-3.0225,-3.0264,-3.0254,-3.0295,-3.0293,-3.0318,-3.0325,-3.0332,-3.0335,-3.0367,-3.0383,-3.0377,-3.0377,-3.0395,-3.0413,-3.041,-3.0418,-3.044,-3.0433,-3.0341,-3.0328,-3.0315,-3.0303,-3.0443,-3.0443,-3.0528,-3.0528,-3.0529]},{"header":{"parameterUnit":"m.s-1","parameterCategory":1,"la1":30.2991,"la2":30.254,"lo1":-89.0895,"lo2":-89.0444,"dy":0.0017,"dx":0.0017,"nx":28,"ny":28,"refTime":"2026-03-05T03:00:00:Z","depth":0,"parameterNumber":3,"parameterNumberName":"V-component_of_WINDS"},"data":[0,0,0,0,0,0,0,0,0,0,0,0,0,0,0,0,0,0,0,0,0,0,0,0,0,0,0,0,0,0,0,0,0,0,0,0,0,0,0,0,0,0,0,0,0,0,0,0,0,0,0,0,0,0,0,0,0,0,1.1278,1.1279,0,1.1328,1.1328,1.1329,1.1405,1.1406,1.1408,1.1409,1.1458,1.1458,1.1458,0,0,0,0,0,0,0,0,0,0,0,0,0,1.1248,1.1248,1.1278,1.1279,1.1279,1.1328,1.1328,1.1329,1.1405,1.1406,1.1408,1.1409,1.1458,1.1458,1.1458,0,0,0,0,0,0,0,0,0,0,0,0,0,1.1276,1.1248,1.1278,1.1323,1.1327,1.1327,1.1328,1.1329,1.1404,1.1406,1.1408,1.141,1.1458,1.1458,1.1458,1.1417,0,0,1.1458,1.1458,0,0,0,0,0,0,0,0,1.1274,1.1277,1.1316,1.132,1.1325,1.1362,1.1336,1.1359,1.1404,1.1375,1.1409,1.1411,1.1424,1.1427,1.1432,1.142,1.1422,1.1458,1.1458,1.1458,1.1458,0,0,0,0,0,0,0,1.1272,1.1275,1.1298,1.1316,1.1322,1.134,1.1347,1.134,1.1387,1.1378,1.1383,1.1388,1.1427,1.1432,1.1434,1.1422,1.1458,1.1458,1.1458,1.1458,1.1381,1.1379,0,0,0,0,0,0,1.1264,1.1273,1.1296,1.1299,1.1304,1.1339,1.1346,1.1348,1.1388,1.1396,1.1386,1.1392,1.1431,1.1433,1.1436,1.1392,1.1458,1.1458,1.1458,1.1383,1.1381,1.1379,0,0,0,0,0,0,1.1263,1.1265,1.1294,1.1288,1.1293,1.1338,1.1339,1.1348,1.1353,1.1394,1.1403,1.1383,1.1432,1.1435,1.1422,1.1395,1.1458,1.1458,1.1386,1.1383,1.138,1.1304,0,0,0,0,0,0,1.1262,1.1264,1.1249,1.1287,1.1293,1.1279,1.1337,1.1347,1.1353,1.136,1.1393,1.14,1.1434,1.1421,1.1422,1.1396,1.1458,1.1388,1.1384,1.1381,1.1309,1.1299,1.129,0,0,0,0,0,1.126,1.1225,1.1248,1.1251,1.1275,1.1278,1.1281,1.1321,1.135,1.1336,1.1363,1.1399,1.1398,1.1419,1.1421,1.1394,1.139,1.1386,1.1381,1.1313,1.1301,1.129,0,0,0,0,0,0,1.1182,1.1231,1.1257,1.1233,1.1251,1.1291,1.1273,1.1306,1.1315,1.1322,1.137,1.1377,1.1358,1.1375,1.1398,1.1358,1.14,1.1395,1.1348,1.1336,1.1327,1.1323,1.1458,0,0,0,0,0,1.1163,1.1161,1.1203,1.1178,1.1186,1.1228,1.123,1.126,1.128,1.1288,1.1314,1.1331,1.1335,1.1337,1.1342,1.1312,1.1321,1.1295,1.1285,1.1277,1.1272,1.1259,1.1248,1.1363,1.1363,1.1363,0,0,1.1121,1.1148,1.1143,1.1163,1.118,1.1178,1.1234,1.1228,1.1227,1.1287,1.1276,1.1295,1.1319,1.1297,1.1289,1.131,1.1242,1.1271,1.1264,1.1264,1.1253,1.1242,1.1232,1.136,1.1361,1.1361,0,0,1.1045,1.1064,1.1046,1.1063,1.1089,1.1117,1.1113,1.1148,1.1164,1.1154,1.12,1.1198,1.1203,1.1219,1.1227,1.1158,1.1192,1.1158,1.1108,1.1094,1.1085,1.1077,1.1054,1.1045,1.1153,1.1153,1.1153,0,1.099,1.0989,1.1033,1.1025,1.1033,1.1088,1.107,1.1084,1.111,1.1114,1.1138,1.1147,1.1166,1.115,1.1133,1.1137,1.1134,1.1155,1.1083,1.1076,1.1069,1.1047,1.1038,1.1149,1.115,1.115,1.115,0,1.0921,1.0919,1.0901,1.0926,1.0932,1.0919,1.0961,1.0962,1.0991,1.1017,1.1006,1.1032,1.1044,1.1042,1.107,1.103,1.1043,1.1074,1.1117,1.1053,1.1033,1.1025,1.1143,1.1145,1.1146,1.1147,0,0,1.0797,1.0847,1.084,1.0853,1.0886,1.0885,1.0875,1.0888,1.0888,1.0904,1.0898,1.0901,1.0931,1.094,1.097,1.0958,1.0904,1.0992,1.0993,1.0975,1.0863,1.0839,1.0829,1.0927,1.0925,1.0924,1.0861,0,1.0728,1.0714,1.0754,1.073,1.073,1.0783,1.0774,1.0794,1.0818,1.0821,1.0847,1.085,1.0888,1.0894,1.0885,1.0912,1.0882,1.0917,1.0921,1.0921,1.0915,1.0819,1.0794,1.0733,1.0853,1.0852,1.0851,0,1.0646,1.0659,1.0635,1.0671,1.0673,1.0664,1.068,1.0682,1.0706,1.0724,1.0735,1.0771,1.0764,1.0804,1.0796,1.0819,1.0823,1.0837,1.0836,1.0838,1.0883,1.0819,1.0714,1.0705,1.0839,1.084,1.0841,0,1.0559,1.0571,1.0559,1.0568,1.0609,1.0602,1.0619,1.0644,1.065,1.0664,1.0668,1.0681,1.0687,1.0696,1.0734,1.076,1.0722,1.0765,1.0737,1.0736,1.0727,1.0727,1.0622,1.0728,1.0728,1.0728,1.0728,0,1.0478,1.0462,1.0521,1.0513,1.0497,1.0543,1.0525,1.0547,1.057,1.0568,1.0614,1.0611,1.0661,1.0664,1.0693,1.0682,1.0685,1.07,1.0708,1.0696,1.0694,1.07,1.0705,1.0726,1.0726,1.0727,1.0727,0,1.0379,1.0417,1.0408,1.0448,1.0458,1.0444,1.0479,1.0474,1.0501,1.0498,1.05,1.0543,1.0549,1.0587,1.0601,1.0621,1.06,1.0616,1.0592,1.0598,1.0568,1.0571,1.0463,1.0452,1.0564,1.0563,1.0562,0,1.0325,1.0315,1.0354,1.0357,1.0372,1.0374,1.0381,1.0426,1.0431,1.0458,1.0449,1.0459,1.0469,1.0476,1.0508,1.0519,1.0537,1.0498,1.0539,1.0527,1.0537,1.0538,1.0538,1.049,1.0488,1.0487,1.0486,0,1.0227,1.0247,1.0255,1.027,1.0277,1.029,1.0307,1.0306,1.0356,1.0359,1.0366,1.0374,1.0389,1.0398,1.0415,1.0433,1.0468,1.0473,1.0468,1.0456,1.0443,1.0451,1.057,1.0476,1.0477,1.0477,1.0478,1.0478,1.015,1.0143,1.0171,1.0178,1.0196,1.021,1.0208,1.0236,1.0242,1.0259,1.0285,1.0288,1.0313,1.034,1.0355,1.0358,1.0378,1.037,1.0368,1.0365,1.0359,1.0442,1.0361,1.0361,1.0362,1.0362,1.0362,0,1.0055,1.0075,1.0082,1.0104,1.011,1.0144,1.0164,1.0167,1.0169,1.019,1.0199,1.0208,1.0217,1.0251,1.0264,1.026,1.0276,1.0262,1.0263,1.0267,1.034,1.0344,1.0248,1.0248,1.0249,1.0249,1.0249,1.0249,1.0006,0.9997,1.002,1.0021,1.0041,1.0046,1.0054,1.0068,1.0085,1.0093,1.0101,1.0123,1.0149,1.0165,1.0175,1.0185,1.0188,1.0168,1.0183,1.025,1.0261,1.0272,1.0276,1.0168,1.0168,1.011,1.0109,1.0109]}]]